Location: Newark
(42.7133°N, 87.7910°W)
Time: 02:40:18
(UTC+00:00)

Tiros 1 - Pass Details

Date: 25 September 2019
Orbit: 630 x 664 km, 48.4° (Epoch: 18 October)

Event Time Altitude Azimuth Distance (km) Brightness Sun altitude
Rises 17:44:21 0° 251° (WSW) 2,977 10.7 46.3°
Reaches altitude 10° 17:46:43 10° 254° (WSW) 2,062 10.0 46.3°
Maximum altitude 17:51:27 69° 338° (NNW) 699 7.8 46.3°
Drops below altitude 10° 17:56:10 10° 62° (ENE) 2,046 9.6 46.2°
Sets 17:58:30 0° 65° (ENE) 2,952 10.3 46.2°
